| time (UTC) | temp C | wind direction | speed KPH | gust KPH | rain 1hr cm | rain 24hr cm | rain mn cm | humidity % | barometer mb |
| 20260505051036 | 13 | 225 | 1.6 | 3.2 | 0.00 | 0.00 | 0.00 | 80 | 1030.8 |
| 20260505050542 | 13 | 225 | 0.0 | 3.2 | 0.00 | 0.00 | 0.00 | 79 | 1030.9 |
| 20260505041550 | 15 | 227 | 4.8 | 6.4 | 0.00 | 0.00 | 0.00 | 72 | 1030.9 |
| 20260505041039 | 15 | 231 | 4.8 | 8.0 | 0.00 | 0.00 | 0.00 | 72 | 1030.8 |
| 20260505040536 | 15 | 236 | 4.8 | 8.0 | 0.00 | 0.00 | 0.00 | 72 | 1030.9 |
| 20260505040054 | 15 | 238 | 4.8 | 8.0 | 0.00 | 0.00 | 0.00 | 71 | 1030.9 |
| 20260505035537 | 16 | 229 | 4.8 | 8.0 | 0.00 | 0.00 | 0.00 | 70 | 1030.9 |
| 20260505035039 | 16 | 229 | 4.8 | 8.0 | 0.00 | 0.00 | 0.00 | 71 | 1030.9 |
| 20260505034552 | 16 | 236 | 4.8 | 8.0 | 0.00 | 0.00 | 0.00 | 70 | 1031.0 |
| 20260505034040 | 16 | 236 | 4.8 | 9.7 | 0.00 | 0.00 | 0.00 | 69 | 1031.1 |
| 20260505033540 | 16 | 259 | 6.4 | 12.9 | 0.00 | 0.00 | 0.00 | 69 | 1031.0 |
| 20260505033049 | 16 | 294 | 4.8 | 14.5 | 0.00 | 0.00 | 0.00 | 69 | 1031.1 |
| 20260505032542 | 16 | 250 | 6.4 | 14.5 | 0.00 | 0.00 | 0.00 | 69 | 1031.0 |
| 20260505032039 | 16 | 234 | 4.8 | 17.7 | 0.00 | 0.00 | 0.00 | 70 | 1031.0 |
| 20260505031557 | 16 | 309 | 8.0 | 17.7 | 0.00 | 0.00 | 0.00 | 69 | 1031.0 |
| 20260505031042 | 16 | 235 | 6.4 | 12.9 | 0.00 | 0.00 | 0.00 | 68 | 1031.1 |
| 20260505030540 | 16 | 239 | 6.4 | 14.5 | 0.00 | 0.00 | 0.00 | 70 | 1031.0 |
| 20260505030054 | 16 | 253 | 6.4 | 14.5 | 0.00 | 0.00 | 0.00 | 68 | 1031.0 |
| 20260505025537 | 16 | 261 | 6.4 | 14.5 | 0.00 | 0.00 | 0.00 | 69 | 1031.0 |
| 20260505025040 | 16 | 241 | 6.4 | 14.5 | 0.00 | 0.00 | 0.00 | 68 | 1030.9 |
| 20260505024550 | 16 | 294 | 3.2 | 12.9 | 0.00 | 0.00 | 0.00 | 71 | 1030.9 |
| 20260505024039 | 16 | 240 | 6.4 | 12.9 | 0.00 | 0.00 | 0.00 | 70 | 1030.9 |
| 20260505023536 | 16 | 229 | 3.2 | 12.9 | 0.00 | 0.00 | 0.00 | 68 | 1031.0 |
| 20260505023047 | 16 | 298 | 8.0 | 12.9 | 0.00 | 0.00 | 0.00 | 68 | 1031.0 |
| 20260505022540 | 16 | 265 | 4.8 | 14.5 | 0.00 | 0.00 | 0.00 | 68 | 1031.1 |
| 20260505022040 | 16 | 273 | 6.4 | 16.1 | 0.00 | 0.00 | 0.00 | 68 | 1031.1 |
| 20260505021549 | 16 | 250 | 8.0 | 16.1 | 0.00 | 0.00 | 0.00 | 67 | 1031.1 |
| 20260505021040 | 16 | 228 | 6.4 | 14.5 | 0.00 | 0.00 | 0.00 | 69 | 1031.1 |
| 20260505020540 | 16 | 284 | 4.8 | 16.1 | 0.00 | 0.00 | 0.00 | 67 | 1031.1 |
| 20260505020042 | 16 | 240 | 8.0 | 16.1 | 0.00 | 0.00 | 0.00 | 70 | 1031.0 |
| 20260505015540 | 16 | 234 | 6.4 | 12.9 | 0.00 | 0.00 | 0.00 | 70 | 1031.1 |
| 20260505015040 | 16 | 243 | 8.0 | 16.1 | 0.00 | 0.00 | 0.00 | 70 | 1031.2 |
| 20260505014602 | 16 | 237 | 3.2 | 16.1 | 0.00 | 0.00 | 0.00 | 69 | 1031.2 |
| 20260505014042 | 16 | 284 | 4.8 | 12.9 | 0.00 | 0.00 | 0.00 | 69 | 1031.3 |
| 20260505013538 | 16 | 266 | 6.4 | 12.9 | 0.00 | 0.00 | 0.00 | 68 | 1031.4 |
| 20260505013047 | 16 | 240 | 4.8 | 12.9 | 0.00 | 0.00 | 0.00 | 70 | 1031.4 |
| 20260505012540 | 16 | 246 | 4.8 | 14.5 | 0.00 | 0.00 | 0.00 | 69 | 1031.4 |
| 20260505012041 | 16 | 246 | 4.8 | 14.5 | 0.00 | 0.00 | 0.00 | 69 | 1031.4 |
| 20260505011551 | 15 | 268 | 4.8 | 11.3 | 0.00 | 0.00 | 0.00 | 69 | 1031.4 |
| 20260505011040 | 15 | 257 | 4.8 | 12.9 | 0.00 | 0.00 | 0.00 | 71 | 1031.5 |
| 20260505010543 | 15 | 217 | 4.8 | 12.9 | 0.00 | 0.00 | 0.00 | 70 | 1031.5 |
| 20260505010045 | 15 | 244 | 6.4 | 12.9 | 0.00 | 0.00 | 0.00 | 70 | 1031.7 |
| 20260505005540 | 15 | 240 | 6.4 | 12.9 | 0.00 | 0.00 | 0.00 | 69 | 1031.6 |
| 20260505005042 | 15 | 260 | 4.8 | 9.7 | 0.00 | 0.00 | 0.00 | 69 | 1031.7 |
| 20260505004541 | 15 | 257 | 4.8 | 16.1 | 0.00 | 0.00 | 0.00 | 70 | 1031.8 |
| 20260505004038 | 15 | 232 | 4.8 | 17.7 | 0.00 | 0.00 | 0.00 | 70 | 1032.0 |
| 20260505003539 | 15 | 253 | 6.4 | 17.7 | 0.00 | 0.00 | 0.00 | 70 | 1032.1 |
| 20260505003053 | 15 | 267 | 4.8 | 12.9 | 0.00 | 0.00 | 0.00 | 71 | 1032.3 |
| 20260505002540 | 15 | 217 | 4.8 | 9.7 | 0.00 | 0.00 | 0.00 | 69 | 1032.3 |
| 20260505002040 | 15 | 301 | 3.2 | 9.7 | 0.00 | 0.00 | 0.00 | 70 | 1032.5 |
| 20260505001547 | 15 | 236 | 3.2 | 9.7 | 0.00 | 0.00 | 0.00 | 74 | 1032.5 |
| 20260505001039 | 15 | 228 | 3.2 | 8.0 | 0.00 | 0.00 | 0.00 | 70 | 1032.6 |
| 20260505000540 | 15 | 235 | 6.4 | 12.9 | 0.00 | 0.00 | 0.00 | 70 | 1032.7 |
| 20260505000055 | 15 | 231 | 4.8 | 17.7 | 0.00 | 0.00 | 0.00 | 71 | 1032.6 |
| 20260504235542 | 15 | 271 | 6.4 | 17.7 | 0.00 | 0.00 | 0.00 | 71 | 1032.7 |
| 20260504235043 | 15 | 235 | 6.4 | 17.7 | 0.00 | 0.00 | 0.00 | 71 | 1032.8 |
| 20260504234551 | 15 | 241 | 6.4 | 16.1 | 0.00 | 0.00 | 0.00 | 70 | 1032.9 |
| 20260504234040 | 15 | 294 | 4.8 | 16.1 | 0.00 | 0.00 | 0.00 | 71 | 1033.1 |
| 20260504233542 | 15 | 226 | 8.0 | 14.5 | 0.00 | 0.00 | 0.00 | 71 | 1033.2 |
| 20260504233043 | 14 | 240 | 6.4 | 12.9 | 0.00 | 0.00 | 0.00 | 71 | 1033.3 |
| 20260504232540 | 14 | 240 | 4.8 | 12.9 | 0.00 | 0.00 | 0.00 | 72 | 1033.3 |
| 20260504232040 | 14 | 335 | 4.8 | 12.9 | 0.00 | 0.00 | 0.00 | 72 | 1033.4 |
| 20260504231549 | 14 | 269 | 4.8 | 12.9 | 0.00 | 0.00 | 0.00 | 73 | 1033.3 |
| 20260504231038 | 14 | 273 | 6.4 | 12.9 | 0.00 | 0.00 | 0.00 | 72 | 1033.3 |
| 20260504230539 | 14 | 290 | 4.8 | 12.9 | 0.00 | 0.00 | 0.00 | 72 | 1033.4 |
| 20260504230050 | 14 | 323 | 3.2 | 8.0 | 0.00 | 0.00 | 0.00 | 74 | 1033.3 |
| 20260504225539 | 14 | 236 | 3.2 | 8.0 | 0.00 | 0.00 | 0.00 | 76 | 1033.3 |
| 20260504225042 | 14 | 265 | 1.6 | 8.0 | 0.00 | 0.00 | 0.00 | 78 | 1033.3 |
| 20260504224547 | 14 | 263 | 1.6 | 6.4 | 0.00 | 0.00 | 0.00 | 78 | 1033.4 |
| 20260504224040 | 13 | 49 | 1.6 | 8.0 | 0.00 | 0.00 | 0.00 | 78 | 1033.4 |
| 20260504223540 | 13 | 69 | 3.2 | 8.0 | 0.00 | 0.00 | 0.00 | 79 | 1033.3 |
| 20260504223043 | 13 | 237 | 1.6 | 4.8 | 0.00 | 0.00 | 0.00 | 80 | 1033.3 |
| 20260504222542 | 13 | 238 | 1.6 | 4.8 | 0.00 | 0.00 | 0.00 | 79 | 1033.2 |
| 20260504222040 | 13 | 153 | 0.0 | 4.8 | 0.00 | 0.00 | 0.00 | 81 | 1033.0 |
| 20260504221548 | 13 | 0 | 0.0 | 8.0 | 0.00 | 0.00 | 0.00 | 82 | 1033.2 |
| 20260504221040 | 13 | 73 | 3.2 | 8.0 | 0.00 | 0.00 | 0.00 | 81 | 1033.2 |
| 20260504220540 | 13 | 71 | 3.2 | 11.3 | 0.00 | 0.00 | 0.00 | 81 | 1033.1 |
| 20260504220050 | 13 | 68 | 3.2 | 11.3 | 0.00 | 0.00 | 0.00 | 82 | 1033.1 |
| 20260504215540 | 13 | 78 | 1.6 | 8.0 | 0.00 | 0.00 | 0.00 | 82 | 1033.3 |
| 20260504215040 | 12 | 106 | 3.2 | 9.7 | 0.00 | 0.00 | 0.00 | 83 | 1033.3 |
| 20260504214554 | 12 | 71 | 3.2 | 9.7 | 0.00 | 0.00 | 0.00 | 83 | 1033.2 |
| 20260504214039 | 12 | 62 | 1.6 | 8.0 | 0.00 | 0.00 | 0.00 | 83 | 1033.2 |
| 20260504213539 | 12 | 36 | 4.8 | 12.9 | 0.00 | 0.00 | 0.00 | 82 | 1033.3 |
| 20260504213044 | 12 | 86 | 3.2 | 12.9 | 0.00 | 0.00 | 0.00 | 82 | 1033.3 |
| 20260504212540 | 12 | 76 | 1.6 | 4.8 | 0.00 | 0.00 | 0.00 | 83 | 1033.3 |
| 20260504212043 | 12 | 71 | 0.0 | 1.6 | 0.00 | 0.00 | 0.00 | 83 | 1033.4 |
| 20260504211546 | 12 | 0 | 0.0 | 4.8 | 0.00 | 0.00 | 0.00 | 84 | 1033.3 |
| 20260504211041 | 12 | 0 | 0.0 | 4.8 | 0.00 | 0.00 | 0.00 | 83 | 1033.4 |
| 20260504210540 | 12 | 0 | 0.0 | 3.2 | 0.00 | 0.00 | 0.00 | 84 | 1033.5 |
| 20260504210055 | 12 | 0 | 0.0 | 3.2 | 0.00 | 0.00 | 0.00 | 84 | 1033.4 |
| 20260504205540 | 12 | 87 | 0.0 | 1.6 | 0.00 | 0.00 | 0.00 | 84 | 1033.5 |
| 20260504205040 | 12 | 0 | 0.0 | 1.6 | 0.00 | 0.00 | 0.00 | 85 | 1033.6 |
| 20260504204607 | 11 | 0 | 0.0 | 1.6 | 0.00 | 0.00 | 0.00 | 85 | 1033.5 |
| 20260504204039 | 11 | 0 | 0.0 | 1.6 | 0.00 | 0.00 | 0.00 | 85 | 1033.6 |
| 20260504203540 | 11 | 0 | 0.0 | 1.6 | 0.00 | 0.00 | 0.00 | 85 | 1033.6 |
| 20260504203115 | 11 | 0 | 0.0 | 1.6 | 0.00 | 0.00 | 0.00 | 85 | 1033.5 |
| 20260504202540 | 11 | 87 | 0.0 | 3.2 | 0.00 | 0.00 | 0.00 | 85 | 1033.5 |
| 20260504202040 | 11 | 0 | 0.0 | 3.2 | 0.00 | 0.00 | 0.00 | 85 | 1033.5 |
| 20260504201549 | 11 | 229 | 0.0 | 4.8 | 0.00 | 0.00 | 0.00 | 84 | 1033.6 |
| 20260504201040 | 11 | 0 | 0.0 | 4.8 | 0.00 | 0.00 | 0.00 | 84 | 1033.6 |
| 20260504200540 | 11 | 232 | 0.0 | 4.8 | 0.00 | 0.00 | 0.00 | 84 | 1033.5 |
| 20260504200053 | 11 | 0 | 0.0 | 4.8 | 0.00 | 0.00 | 0.00 | 84 | 1033.4 |
| 20260504195540 | 11 | 232 | 3.2 | 4.8 | 0.00 | 0.00 | 0.00 | 83 | 1033.5 |
| 20260504195041 | 11 | 231 | 0.0 | 1.6 | 0.00 | 0.00 | 0.00 | 83 | 1033.4 |
| 20260504194544 | 11 | 0 | 0.0 | 1.6 | 0.00 | 0.00 | 0.00 | 83 | 1033.3 |
| 20260504194040 | 11 | 231 | 0.0 | 1.6 | 0.00 | 0.00 | 0.00 | 83 | 1033.4 |
| 20260504193540 | 11 | 231 | 0.0 | 1.6 | 0.00 | 0.00 | 0.00 | 83 | 1033.4 |
| 20260504193051 | 11 | 231 | 0.0 | 1.6 | 0.00 | 0.00 | 0.00 | 83 | 1033.2 |
| 20260504192538 | 11 | 231 | 1.6 | 1.6 | 0.00 | 0.00 | 0.00 | 83 | 1033.3 |
| 20260504192039 | 11 | 232 | 0.0 | 1.6 | 0.00 | 0.00 | 0.00 | 83 | 1033.3 |
| 20260504191552 | 11 | 232 | 0.0 | 1.6 | 0.00 | 0.00 | 0.00 | 84 | 1033.3 |
| 20260504191106 | 11 | 232 | 0.0 | 1.6 | 0.00 | 0.00 | 0.00 | 83 | 1033.3 |
| 20260504190539 | 11 | 0 | 0.0 | 1.6 | 0.00 | 0.00 | 0.00 | 83 | 1033.3 |
| 20260504190052 | 11 | 0 | 0.0 | 0.0 | 0.00 | 0.00 | 0.00 | 83 | 1033.3 |
| 20260504185538 | 11 | 0 | 0.0 | 0.0 | 0.00 | 0.00 | 0.00 | 82 | 1033.2 |
| 20260504185040 | 11 | 0 | 0.0 | 0.0 | 0.00 | 0.00 | 0.00 | 81 | 1033.3 |
| 20260504184548 | 11 | 0 | 0.0 | 1.6 | 0.00 | 0.00 | 0.00 | 81 | 1033.3 |
| 20260504184038 | 11 | 234 | 0.0 | 1.6 | 0.00 | 0.00 | 0.00 | 80 | 1033.3 |
| 20260504183539 | 11 | 234 | 0.0 | 3.2 | 0.00 | 0.00 | 0.00 | 80 | 1033.3 |
| 20260504183045 | 11 | 234 | 1.6 | 3.2 | 0.00 | 0.00 | 0.00 | 80 | 1033.3 |
| 20260504182538 | 11 | 234 | 1.6 | 3.2 | 0.00 | 0.00 | 0.00 | 80 | 1033.3 |
| 20260504182038 | 11 | 234 | 1.6 | 4.8 | 0.00 | 0.00 | 0.00 | 80 | 1033.4 |
| 20260504181542 | 11 | 234 | 3.2 | 4.8 | 0.00 | 0.00 | 0.00 | 79 | 1033.4 |
| 20260504181038 | 11 | 234 | 1.6 | 4.8 | 0.00 | 0.00 | 0.00 | 79 | 1033.4 |
| 20260504180539 | 12 | 234 | 3.2 | 4.8 | 0.00 | 0.00 | 0.00 | 79 | 1033.5 |
| 20260504180053 | 12 | 253 | 1.6 | 4.8 | 0.00 | 0.00 | 0.00 | 79 | 1033.5 |
| 20260504175539 | 12 | 236 | 1.6 | 9.7 | 0.00 | 0.00 | 0.00 | 79 | 1033.5 |
| 20260504175039 | 11 | 236 | 3.2 | 9.7 | 0.00 | 0.00 | 0.00 | 79 | 1033.6 |
| 20260504174549 | 11 | 246 | 1.6 | 4.8 | 0.00 | 0.00 | 0.00 | 81 | 1033.5 |
| 20260504174039 | 11 | 247 | 1.6 | 4.8 | 0.00 | 0.00 | 0.00 | 82 | 1033.6 |
| 20260504173539 | 11 | 0 | 0.0 | 6.4 | 0.00 | 0.00 | 0.00 | 83 | 1033.6 |
| 20260504173107 | 11 | 286 | 1.6 | 6.4 | 0.00 | 0.00 | 0.00 | 83 | 1033.5 |
| 20260504172538 | 11 | 0 | 0.0 | 4.8 | 0.00 | 0.00 | 0.00 | 84 | 1033.4 |
| 20260504172038 | 11 | 270 | 0.0 | 4.8 | 0.00 | 0.00 | 0.00 | 84 | 1033.5 |
| 20260504171549 | 11 | 270 | 0.0 | 4.8 | 0.00 | 0.00 | 0.00 | 84 | 1033.7 |
| 20260504171039 | 11 | 277 | 0.0 | 6.4 | 0.00 | 0.00 | 0.00 | 83 | 1033.5 |
| 20260504170539 | 11 | 277 | 3.2 | 6.4 | 0.00 | 0.00 | 0.00 | 83 | 1033.5 |
| 20260504151039 | 12 | 0 | 0.0 | 3.2 | 0.00 | 0.00 | 0.00 | 83 | 1033.6 |
| 20260504150540 | 12 | 247 | 0.0 | 4.8 | 0.00 | 0.00 | 0.00 | 82 | 1033.7 |
| 20260504141039 | 12 | 247 | 0.0 | 4.8 | 0.00 | 0.00 | 0.00 | 82 | 1034.1 |
| 20260504140542 | 12 | 0 | 0.0 | 4.8 | 0.00 | 0.00 | 0.00 | 82 | 1034.1 |
| 20260504130538 | 11 | 0 | 0.0 | 3.2 | 0.00 | 0.00 | 0.00 | 84 | 1034.2 |
| 20260504130204 | 11 | 240 | 0.0 | 4.8 | 0.00 | 0.00 | 0.00 | 84 | 1034.2 |
| 20260504110538 | 12 | 0 | 0.0 | 1.6 | 0.00 | 0.00 | 0.00 | 86 | 1034.2 |
| 20260504100538 | 12 | 240 | 0.0 | 1.6 | 0.00 | 0.00 | 0.00 | 85 | 1034.3 |
| 20260504081551 | 12 | 0 | 0.0 | 1.6 | 0.00 | 0.00 | 0.00 | 83 | 1033.6 |
| 20260504081038 | 12 | 0 | 0.0 | 0.0 | 0.00 | 0.00 | 0.00 | 83 | 1033.6 |
| 20260504080542 | 12 | 0 | 0.0 | 1.6 | 0.00 | 0.00 | 0.00 | 83 | 1033.6 |